[[{"header":{"parameterUnit":"m.s-1","parameterCategory":1,"la1":30.2991,"la2":30.254,"lo1":-89.0895,"lo2":-89.0444,"dy":0.0017,"dx":0.0017,"nx":28,"ny":28,"refTime":"2024-07-04T09:00:00:Z","depth":0,"parameterNumber":2,"parameterNumberName":"U-component_of_WINDS"},"data":[0,0,0,0,0,0,0,0,0,0,0,0,0,0,0,0,0,0,0,0,0,0,0,0,0,0,0,0,0,0,0,0,0,0,0,0,0,0,0,0,0,0,0,0,0,0,0,0,0,0,0,0,0,0,0,0,0,0,4.6998,4.7,0,4.7121,4.7122,4.7124,4.7033,4.7029,4.7025,4.7021,4.715,4.7157,4.7164,0,0,0,0,0,0,0,0,0,0,0,0,0,4.6686,4.6693,4.6998,4.7,4.7001,4.7121,4.7123,4.7124,4.7033,4.7028,4.7024,4.7019,4.7148,4.7156,4.7165,0,0,0,0,0,0,0,0,0,0,0,0,0,4.6817,4.6695,4.6998,4.697,4.6969,4.712,4.7123,4.7125,4.7034,4.7028,4.7022,4.7017,4.7145,4.7155,4.7166,4.7353,0,0,4.7199,4.7204,0,0,0,0,0,0,0,0,4.681,4.6828,4.6973,4.6972,4.6971,4.7055,4.706,4.7201,4.7036,4.701,4.7021,4.7014,4.7124,4.7136,4.7172,4.7359,4.7364,4.72,4.7206,4.7211,4.7214,0,0,0,0,0,0,0,4.6801,4.6823,4.7047,4.6975,4.6974,4.6952,4.6964,4.7086,4.7099,4.7011,4.7005,4.7021,4.7122,4.7162,4.7174,4.7366,4.72,4.7209,4.7216,4.722,4.7709,4.7715,0,0,0,0,0,0,4.6794,4.6816,4.7043,4.705,4.6874,4.6963,4.6976,4.7034,4.7097,4.7101,4.7026,4.7016,4.7147,4.7162,4.7179,4.7399,4.7211,4.7221,4.7227,4.7703,4.7711,4.7718,0,0,0,0,0,0,4.6788,4.6815,4.7038,4.6931,4.6958,4.6974,4.7041,4.704,4.708,4.7108,4.711,4.7064,4.7142,4.7164,4.7309,4.7402,4.7226,4.7236,4.7695,4.7705,4.7714,4.7843,0,0,0,0,0,0,4.6779,4.6813,4.6884,4.6934,4.6964,4.7166,4.7047,4.7047,4.7098,4.7087,4.7145,4.7148,4.7139,4.7294,4.732,4.7414,4.7244,4.7687,4.7699,4.7711,4.7831,4.7856,4.7878,0,0,0,0,0,4.6768,4.6917,4.6888,4.6916,4.7053,4.7172,4.7189,4.7175,4.7106,4.7177,4.7195,4.7147,4.7388,4.7309,4.7338,4.7437,4.7681,4.7696,4.771,4.782,4.7851,4.7878,0,0,0,0,0,0,4.688,4.6923,4.6892,4.7061,4.7113,4.7156,4.7246,4.7209,4.7283,4.7269,4.7249,4.7263,4.7415,4.7441,4.7352,4.762,4.7523,4.7545,4.7597,4.7627,4.765,4.7641,4.7253,0,0,0,0,0,4.6924,4.7016,4.7049,4.7195,4.7223,4.723,4.7281,4.7265,4.7319,4.7342,4.737,4.7425,4.7513,4.7572,4.7654,4.7834,4.7844,4.7916,4.794,4.7959,4.7978,4.8072,4.8104,4.7766,4.7766,4.7766,0,0,4.7016,4.7051,4.7111,4.7218,4.7257,4.7353,4.7249,4.7356,4.7427,4.7358,4.7496,4.752,4.7579,4.7742,4.7816,4.7768,4.8073,4.7978,4.7993,4.8001,4.8091,4.8123,4.8151,4.7776,4.7774,4.7773,0,0,4.7233,4.7269,4.7393,4.7434,4.7493,4.7497,4.7527,4.7575,4.7587,4.7725,4.7675,4.776,4.7912,4.7956,4.7999,4.823,4.8188,4.8258,4.8382,4.8474,4.8501,4.8524,4.8605,4.8635,4.8276,4.8277,4.8277,0,4.734,4.7482,4.7463,4.7572,4.762,4.7561,4.7686,4.7727,4.7811,4.7846,4.7791,4.798,4.8016,4.8187,4.8243,4.828,4.8313,4.8251,4.8498,4.8522,4.8543,4.862,4.8651,4.8285,4.8284,4.8283,4.8282,0,4.7611,4.771,4.7803,4.7884,4.7943,4.806,4.8058,4.812,4.8099,4.8108,4.8249,4.829,4.8379,4.8419,4.84,4.8587,4.8556,4.8501,4.8403,4.8584,4.8656,4.8685,4.8296,4.8293,4.8291,4.8289,0,0,4.7902,4.7968,4.8003,4.8037,4.8098,4.8174,4.8289,4.8374,4.8427,4.8487,4.8581,4.8711,4.8659,4.8707,4.8693,4.8775,4.8953,4.8709,4.871,4.8751,4.9159,4.9199,4.9234,4.8925,4.8931,4.8935,4.9154,0,4.812,4.8318,4.8302,4.8489,4.858,4.8523,4.8623,4.867,4.8682,4.8761,4.8774,4.8865,4.8791,4.8819,4.8897,4.8915,4.9034,4.8899,4.9013,4.9017,4.8998,4.9272,4.9315,4.9519,4.9182,4.9187,4.919,0,4.8402,4.8469,4.8664,4.8708,4.8746,4.8835,4.8911,4.8987,4.904,4.9042,4.9095,4.9067,4.9181,4.9082,4.9239,4.9147,4.9193,4.9208,4.9216,4.9225,4.9114,4.9287,4.9584,4.9615,4.9235,4.9231,4.9228,0,4.8592,4.8732,4.8866,4.8898,4.8954,4.9017,4.9044,4.909,4.9142,4.9209,4.9241,4.9322,4.9365,4.9428,4.9421,4.935,4.9581,4.9481,4.9586,4.9586,4.9636,4.9633,4.9944,4.9668,4.9668,4.9667,4.9667,0,4.8837,4.8959,4.8952,4.9035,4.9168,4.915,4.9283,4.9302,4.9343,4.9428,4.9386,4.9466,4.9453,4.9534,4.953,4.966,4.9681,4.9686,4.9683,4.9689,4.9688,4.9718,4.9703,4.9675,4.9674,4.9672,4.9671,0,4.9073,4.9074,4.9216,4.9256,4.9269,4.9365,4.94,4.9478,4.9484,4.9593,4.9617,4.9629,4.9722,4.9721,4.9828,4.9825,4.9983,4.9965,4.9965,4.9961,5.0064,5.0054,5.0404,5.0448,5.0146,5.0149,5.0151,0,4.9229,4.932,4.9369,4.9422,4.9452,4.9539,4.959,4.9575,4.9631,4.9696,4.9766,4.9855,4.9925,5.0076,5.0094,5.0175,5.0157,5.0274,5.0169,5.0171,5.0157,5.0151,5.0159,5.0295,5.0298,5.0301,5.0303,0,4.9504,4.9499,4.9575,4.9651,4.9713,4.9772,4.9827,4.9873,4.9864,4.9929,5.0022,5.0076,5.0183,5.0271,5.0349,5.0376,5.0338,5.0336,5.0364,5.037,5.0366,5.0368,5.002,5.0328,5.0325,5.0324,5.0322,5.0321,4.9704,4.9781,4.9827,4.9912,4.9951,5.0003,5.0077,5.0092,5.017,5.0255,5.0241,5.0345,5.0394,5.0494,5.0528,5.0609,5.0568,5.0609,5.0619,5.0629,5.0639,5.0354,5.0623,5.0622,5.0622,5.0621,5.0621,0,4.9975,5.0002,5.008,5.0156,5.0223,5.018,5.0238,5.0297,5.0388,5.0436,5.0505,5.0611,5.0696,5.072,5.0802,5.0862,5.0846,5.0884,5.0878,5.0885,5.0673,5.0639,5.0894,5.0894,5.0894,5.0894,5.0894,5.0894,5.0125,5.0253,5.0253,5.04,5.0426,5.0526,5.0562,5.0609,5.0647,5.0767,5.0837,5.0851,5.0889,5.0973,5.1048,5.1053,5.1084,5.1129,5.1127,5.0928,5.09,5.0874,5.0842,5.1136,5.1136,5.1332,5.1333,5.1335]},{"header":{"parameterUnit":"m.s-1","parameterCategory":1,"la1":30.2991,"la2":30.254,"lo1":-89.0895,"lo2":-89.0444,"dy":0.0017,"dx":0.0017,"nx":28,"ny":28,"refTime":"2024-07-04T09:00:00:Z","depth":0,"parameterNumber":3,"parameterNumberName":"V-component_of_WINDS"},"data":[0,0,0,0,0,0,0,0,0,0,0,0,0,0,0,0,0,0,0,0,0,0,0,0,0,0,0,0,0,0,0,0,0,0,0,0,0,0,0,0,0,0,0,0,0,0,0,0,0,0,0,0,0,0,0,0,0,0,1.6455,1.6455,0,1.6478,1.6478,1.6479,1.6462,1.6461,1.646,1.6459,1.6483,1.6484,1.6485,0,0,0,0,0,0,0,0,0,0,0,0,0,1.6393,1.6395,1.6455,1.6455,1.6455,1.6478,1.6478,1.6479,1.6462,1.6461,1.646,1.6459,1.6482,1.6484,1.6485,0,0,0,0,0,0,0,0,0,0,0,0,0,1.6419,1.6395,1.6455,1.645,1.6449,1.6478,1.6479,1.6479,1.6462,1.6461,1.646,1.6459,1.6482,1.6484,1.6486,1.6521,0,0,1.6492,1.6493,0,0,0,0,0,0,0,0,1.6417,1.6421,1.645,1.645,1.645,1.6466,1.6465,1.6493,1.6462,1.6457,1.6459,1.6458,1.6478,1.648,1.6487,1.6522,1.6523,1.6492,1.6493,1.6494,1.6495,0,0,0,0,0,0,0,1.6416,1.642,1.6464,1.645,1.645,1.6446,1.6448,1.6471,1.6474,1.6457,1.6456,1.6459,1.6478,1.6485,1.6487,1.6523,1.6492,1.6494,1.6495,1.6496,1.6586,1.6587,0,0,0,0,0,0,1.6415,1.6419,1.6463,1.6465,1.643,1.6448,1.645,1.6462,1.6473,1.6474,1.646,1.6458,1.6482,1.6485,1.6488,1.6529,1.6494,1.6496,1.6497,1.6585,1.6586,1.6588,0,0,0,0,0,0,1.6413,1.6419,1.6462,1.6441,1.6447,1.645,1.6463,1.6463,1.647,1.6475,1.6476,1.6468,1.6482,1.6485,1.6512,1.653,1.6497,1.6498,1.6583,1.6585,1.6587,1.6611,0,0,0,0,0,0,1.6412,1.6418,1.6432,1.6442,1.6448,1.6487,1.6464,1.6464,1.6474,1.6472,1.6482,1.6483,1.6481,1.651,1.6514,1.6532,1.65,1.6582,1.6584,1.6586,1.6609,1.6614,1.6618,0,0,0,0,0,1.641,1.6438,1.6433,1.6438,1.6465,1.6488,1.6491,1.6488,1.6475,1.6489,1.6492,1.6483,1.6527,1.6512,1.6518,1.6536,1.6581,1.6584,1.6586,1.6607,1.6613,1.6618,0,0,0,0,0,0,1.643,1.6439,1.6434,1.6466,1.6476,1.6485,1.6502,1.6495,1.6509,1.6506,1.6502,1.6504,1.6532,1.6537,1.6521,1.657,1.6552,1.6556,1.6566,1.6571,1.6576,1.6574,1.6502,0,0,0,0,0,1.6439,1.6457,1.6463,1.6492,1.6497,1.6498,1.6508,1.6505,1.6515,1.652,1.6525,1.6535,1.655,1.6561,1.6576,1.661,1.6611,1.6625,1.6629,1.6633,1.6636,1.6653,1.6659,1.6597,1.6597,1.6596,0,0,1.6456,1.6463,1.6475,1.6496,1.6503,1.6521,1.6502,1.6522,1.6536,1.6523,1.6548,1.6552,1.6563,1.6593,1.6606,1.6597,1.6654,1.6636,1.6639,1.664,1.6656,1.6662,1.6667,1.6598,1.6598,1.6598,0,0,1.6497,1.6505,1.6529,1.6536,1.6548,1.6548,1.6554,1.6564,1.6566,1.6591,1.6582,1.6597,1.6625,1.6633,1.664,1.6683,1.6675,1.6688,1.6711,1.6728,1.6733,1.6737,1.6752,1.6757,1.6692,1.6692,1.6692,0,1.6517,1.6545,1.6542,1.6562,1.6572,1.656,1.6584,1.6592,1.6607,1.6614,1.6604,1.6638,1.6644,1.6676,1.6686,1.6693,1.6699,1.6687,1.6733,1.6737,1.6741,1.6755,1.676,1.6693,1.6693,1.6693,1.6693,0,1.6569,1.6588,1.6605,1.6621,1.6632,1.6654,1.6654,1.6665,1.6661,1.6663,1.6688,1.6696,1.6712,1.6719,1.6715,1.6749,1.6743,1.6733,1.6715,1.6748,1.6761,1.6766,1.6696,1.6695,1.6695,1.6694,0,0,1.6624,1.6637,1.6643,1.665,1.6661,1.6675,1.6697,1.6712,1.6722,1.6733,1.675,1.6774,1.6764,1.6773,1.677,1.6784,1.6817,1.6772,1.6772,1.6779,1.6854,1.6861,1.6867,1.6811,1.6812,1.6813,1.6852,0,1.6665,1.6702,1.6699,1.6734,1.6751,1.6741,1.6759,1.6768,1.677,1.6784,1.6786,1.6802,1.6788,1.6793,1.6807,1.681,1.6831,1.6807,1.6826,1.6827,1.6824,1.6874,1.6882,1.6919,1.6858,1.6858,1.6859,0,1.6718,1.673,1.6767,1.6775,1.6782,1.6799,1.6812,1.6826,1.6836,1.6836,1.6845,1.684,1.686,1.6842,1.687,1.6853,1.6861,1.6863,1.6864,1.6866,1.6845,1.6876,1.6931,1.6936,1.6867,1.6866,1.6866,0,1.6753,1.678,1.6805,1.6811,1.6821,1.6833,1.6837,1.6845,1.6855,1.6867,1.6872,1.6887,1.6894,1.6905,1.6903,1.689,1.6931,1.6912,1.6931,1.6931,1.694,1.6939,1.6996,1.6946,1.6946,1.6946,1.6946,0,1.6799,1.6822,1.6821,1.6836,1.6861,1.6857,1.6881,1.6885,1.6892,1.6907,1.6899,1.6913,1.691,1.6924,1.6923,1.6945,1.6949,1.6949,1.6949,1.695,1.695,1.6955,1.6952,1.6947,1.6947,1.6947,1.6946,0,1.6843,1.6843,1.687,1.6877,1.6879,1.6897,1.6903,1.6917,1.6918,1.6938,1.6942,1.6943,1.6959,1.6958,1.6977,1.6976,1.7004,1.7,1.7,1.6999,1.7018,1.7016,1.7079,1.7087,1.7033,1.7033,1.7034,0,1.6872,1.6889,1.6898,1.6908,1.6913,1.6929,1.6938,1.6935,1.6945,1.6957,1.6969,1.6985,1.6997,1.7023,1.7025,1.7039,1.7035,1.7056,1.7037,1.7037,1.7034,1.7033,1.7034,1.706,1.7061,1.7061,1.7062,0,1.6923,1.6922,1.6936,1.695,1.6961,1.6972,1.6982,1.699,1.6988,1.6999,1.7016,1.7025,1.7043,1.7058,1.7071,1.7076,1.7068,1.7068,1.7072,1.7074,1.7073,1.7073,1.701,1.7066,1.7066,1.7065,1.7065,1.7065,1.696,1.6974,1.6982,1.6998,1.7005,1.7014,1.7027,1.703,1.7043,1.7058,1.7056,1.7074,1.7082,1.7098,1.7104,1.7117,1.711,1.7117,1.7119,1.712,1.7122,1.7071,1.712,1.712,1.712,1.7119,1.7119,0,1.7009,1.7014,1.7029,1.7042,1.7054,1.7046,1.7057,1.7067,1.7083,1.7091,1.7103,1.7122,1.7136,1.7139,1.7153,1.7163,1.716,1.7167,1.7166,1.7166,1.7129,1.7123,1.7169,1.7169,1.7169,1.7169,1.7169,1.7169,1.7037,1.706,1.706,1.7087,1.7091,1.7109,1.7115,1.7123,1.713,1.7151,1.7163,1.7165,1.7171,1.7185,1.7197,1.7198,1.7203,1.7211,1.721,1.7174,1.7169,1.7165,1.7159,1.7212,1.7212,1.7246,1.7247,1.7247]}]]